#timestamp,LO_Frequency,Hit,StdDev 
1616115615.2,286047000.4,N
1616115635.0,286047002.2,N
1616115635.9,286047002.2,N
1616115655.8,286047002.1,N
1616115675.6,286047004.5,N
1616115695.4,286047009.5,N
1616115715.3,286047009.2,N
1616115735.1,286047004.0,N
1616115755.8,286046999.3,N
1616115775.7,286047002.4,N
1616115795.5,286046999.6,N
1616115815.4,286046993.5,N
1616115835.2,286046994.9,N
1616115855.0,286046995.3,N
1616115855.9,286046995.3,N
1616115875.8,286046991.5,N
1616115895.6,286046990.1,N
1616115915.5,286046988.6,N
1616115935.3,286046990.2,N
1616115955.1,286046997.6,N
1616115975.9,286046993.8,N
1616115995.7,286046995.2,N
1616116015.5,286046997.6,N
1616116035.4,286046997.2,N
1616116055.2,286046998.0,N
1616116075.1,286046993.8,N
1616116076.0,286046993.8,N
1616116095.8,286046990.4,N
1616116115.6,286046989.4,N
1616116135.5,286046993.6,N
1616116155.3,286046992.6,N
1616116175.2,286046991.7,N
1616116195.9,286046993.8,N
1616116215.7,286046995.7,N
1616116235.6,286047000.7,N
1616116255.4,286046997.4,N
1616116275.3,286046990.6,N
1616116295.1,286046990.4,N
1616116296.0,286046990.4,N
1616116315.8,286046985.7,Y
1616116335.7,286046990.0,P
1616116355.5,286046987.4,P
1616116375.3,286046989.2,P
1616116395.2,286046989.4,Y
1616116415.0,286046996.8,P
1616116415.9,286046996.8,N
1616116435.8,286047001.6,N
1616116455.6,286047004.0,N
1616116475.4,286047002.4,N
1616116495.3,286046998.0,N
1616116515.1,286046994.8,N
1616116535.9,286046993.3,N
1616116555.7,286046989.4,N
1616116575.5,286046988.7,N
1616116595.4,286046988.4,N
1616116615.2,286046984.1,Y
1616116635.0,286046990.1,P
1616116635.9,286046990.1,P
1616116655.8,286046999.1,N
1616116675.6,286046996.7,N
1616116695.5,286047003.6,N
1616116715.3,286047003.1,N
1616116735.1,286047003.8,N
1616116755.9,286046999.1,N
1616116775.7,286047001.8,N
1616116795.5,286047006.9,N
1616116815.4,286047004.1,N
1616116835.2,286047009.8,N
1616116855.0,286047007.3,N
1616116856.0,286047007.3,N
1616116875.8,286047005.5,N
1616116895.6,286047007.4,N
1616116915.5,286047004.4,N
1616116935.3,286047004.0,N
1616116955.1,286046995.2,N
1616116975.9,286046997.9,N
1616116995.7,286046999.4,N
1616117015.5,286046996.2,N
1616117035.4,286047001.1,N
1616117055.2,286047004.1,N
1616117075.1,286047003.1,N
1616117076.0,286047003.1,N
1616117095.8,286047006.5,N
1616117115.6,286047003.7,N
1616117135.5,286047004.9,N
1616117155.3,286047010.9,N
1616117175.2,286047011.0,N
1616117195.9,286047007.5,N
1616117215.7,286047003.7,N
1616117235.6,286047001.5,N
1616117255.4,286047008.0,N
1616117275.3,286047018.4,Y
1616117295.1,286047011.8,P
1616117296.0,286047011.8,P
1616117315.8,286047014.1,P
1616117335.7,286047014.9,Y
1616117355.5,286047003.6,P
1616117375.3,286047007.7,N
1616117395.2,286047009.0,P
1616117415.0,286047006.3,N
1616117415.9,286047006.3,N
1616117435.8,286047007.0,Y
1616117455.6,286047005.9,P
1616117475.4,286047001.9,N
1616117495.3,286047005.5,N
1616117515.1,286047003.8,N
1616117535.9,286046997.9,N
1616117555.7,286047005.8,N
1616117575.5,286047002.0,N
1616117595.4,286046996.9,N
1616117615.2,286046986.5,Y
1616117635.0,286046984.6,P
1616117635.9,286046984.6,N
1616117655.8,286046986.4,N
1616117675.6,286046986.8,N
1616117695.5,286046983.8,N
1616117715.3,286046984.9,N
1616117735.1,286046983.5,N
1616117755.9,286046982.5,N
1616117775.7,286046990.6,N
1616117795.5,286046994.6,N
1616117815.4,286046993.1,N
1616117835.2,286046989.9,N
1616117855.1,286046988.1,N
1616117856.0,286046988.1,N
1616117875.8,286046985.5,N
1616117895.6,286046981.7,Y
1616117915.5,286046989.5,P
1616117935.3,286046991.3,P
1616117955.1,286046990.4,P
1616117975.9,286046987.3,Y
1616117995.7,286046997.5,P
1616118015.6,286046992.1,N
1616118035.4,286046996.6,N
1616118055.2,286046992.3,N
1616118075.1,286046996.0,N
1616118076.0,286046996.0,N
1616118095.8,286046990.3,Y
1616118115.7,286046996.7,P
1616118135.5,286047003.3,N
1616118155.3,286047002.3,N
1616118175.2,286047001.0,N
1616118195.9,286047001.4,N
1616118215.7,286047008.0,N
1616118235.6,286047010.3,N
1616118255.4,286047010.1,N
1616118275.2,286047014.0,N
1616118295.1,286047014.0,N
1616118296.0,286047014.0,N
1616118315.8,286047009.5,N
1616118335.7,286047006.0,N
1616118355.5,286047003.8,N
1616118375.3,286047008.8,N
1616118395.2,286047014.0,N
1616118415.0,286047013.4,N
1616118415.9,286047013.4,N
1616118435.7,286047013.3,N
1616118455.6,286047011.5,N
1616118475.4,286047016.2,N
1616118495.3,286047020.2,Y
1616118515.1,286047013.3,P
1616118516.0,286047013.3,P
1616118535.8,286047009.0,P
1616118555.7,286047006.4,N
1616118575.5,286047012.5,Y
1616118595.3,286047006.9,P
1616118615.2,286047004.9,P
1616118635.0,286047002.8,N
1616118635.9,286047002.8,N
1616118655.8,286047001.8,N
1616118675.6,286047011.1,Y
1616118695.4,286047005.9,P
1616118715.3,286047004.9,P
1616118735.1,286047001.7,P
1616118755.9,286047000.8,N
1616118775.7,286047002.3,N
1616118795.5,286046997.6,N
1616118815.4,286047001.0,N
1616118835.2,286046998.2,N
1616118855.1,286046999.4,N
1616118856.0,286046999.4,N
1616118875.8,286046995.2,N
1616118895.6,286046998.0,N
1616118915.5,286046997.2,N
1616118935.3,286046995.0,N
1616118955.1,286046992.7,N
1616118975.9,286046992.3,N
1616118995.7,286046993.3,N
1616119015.6,286046996.3,N
1616119035.4,286047002.4,N
1616119055.2,286046997.2,N
1616119075.1,286047011.9,Y
1616119076.0,286046994.1,P
1616119095.8,286046992.0,P
1616119115.6,286046994.9,N
1616119135.5,286046995.8,N
1616119155.3,286046998.5,N
1616119175.2,286047002.4,N
1616119195.9,286047003.1,N
